Location: Bennemühlen
(52.5740°N, 9.7135°E)
Time: 21:16:55
(UTC+00:00)

Tiros 1 despin weight - Pass Details

Date: 18 February 2026
Orbit: 556 x 593 km, 48.2° (Epoch: 8 March)

Event Time Altitude Azimuth Distance (km) Brightness Sun altitude
Rises 17:07:31 0° 261° (W) 2,735 ? -5.0°
Reaches altitude 10° 17:09:50 10° 256° (WSW) 1,838 ? -5.3°
Maximum altitude 17:13:51 46° 183° (S) 751 ? -5.9°
Drops below altitude 10° 17:17:52 10° 110° (ESE) 1,840 ? -6.5°
Enters shadow 17:18:50 - 107° (ESE) 2,212 ? -6.6°
Sets 17:20:11 0° 104° (ESE) 2,738 - -6.8°
